| time (UTC) | temp F | wind direction | speed MPH | gust MPH | rain 1hr in | rain 24hr in | rain mn in | humidity % | barometer mb |
| 20260508122103 | 51 | 316 | 6.0 | 13.0 | 0.00 | 0.00 | 0.00 | 53 | 1009.9 |
| 20260508121103 | 52 | 335 | 8.0 | 11.0 | 0.00 | 0.00 | 0.00 | 53 | 1009.8 |
| 20260508115102 | 52 | 338 | 7.0 | 10.0 | 0.00 | 0.00 | 0.00 | 56 | 1009.7 |
| 20260508114103 | 50 | 316 | 5.0 | 10.0 | 0.00 | 0.00 | 0.00 | 60 | 1009.7 |
| 20260508113103 | 48 | 315 | 4.0 | 9.0 | 0.00 | 0.00 | 0.00 | 62 | 1009.7 |
| 20260508112102 | 47 | 310 | 4.0 | 8.0 | 0.00 | 0.01 | 0.00 | 65 | 1009.8 |
| 20260508111103 | 46 | 310 | 4.0 | 9.0 | 0.00 | 0.02 | 0.00 | 68 | 1009.8 |
| 20260508105124 | 43 | 293 | 1.0 | 2.0 | 0.00 | 0.04 | 0.00 | 73 | 1009.7 |
| 20260508104124 | 42 | 316 | 0.0 | 4.0 | 0.00 | 0.04 | 0.00 | 73 | 1009.5 |
| 20260508103123 | 42 | 302 | 2.0 | 4.0 | 0.00 | 0.04 | 0.00 | 75 | 1009.4 |
| 20260508102103 | 42 | 312 | 2.0 | 5.0 | 0.00 | 0.05 | 0.00 | 77 | 1009.2 |
| 20260508101124 | 41 | 316 | 2.0 | 5.0 | 0.00 | 0.05 | 0.00 | 80 | 1009.1 |
| 20260508100123 | 41 | 319 | 3.0 | 4.0 | 0.00 | 0.06 | 0.00 | 81 | 1009.1 |
| 20260508095103 | 40 | 311 | 2.0 | 4.0 | 0.00 | 0.07 | 0.00 | 81 | 1009.1 |
| 20260508094124 | 40 | 308 | 2.0 | 3.0 | 0.00 | 0.08 | 0.00 | 80 | 1009.0 |
| 20260508093102 | 40 | 313 | 1.0 | 3.0 | 0.00 | 0.08 | 0.00 | 82 | 1008.8 |
| 20260508091102 | 40 | 311 | 1.0 | 4.0 | 0.00 | 0.09 | 0.00 | 77 | 1008.7 |
| 20260508090103 | 39 | 328 | 2.0 | 4.0 | 0.00 | 0.10 | 0.00 | 79 | 1008.8 |
| 20260508085102 | 39 | 315 | 3.0 | 6.0 | 0.00 | 0.11 | 0.00 | 82 | 1008.8 |
| 20260508084104 | 38 | 321 | 4.0 | 6.0 | 0.00 | 0.11 | 0.00 | 85 | 1008.7 |
| 20260508083102 | 38 | 314 | 3.0 | 5.0 | 0.00 | 0.11 | 0.00 | 85 | 1008.6 |
| 20260508081103 | 38 | 319 | 4.0 | 6.0 | 0.00 | 0.13 | 0.00 | 84 | 1008.2 |
| 20260508075102 | 39 | 316 | 2.0 | 3.0 | 0.00 | 0.21 | 0.00 | 80 | 1007.9 |
| 20260508073102 | 40 | 314 | 2.0 | 3.0 | 0.00 | 0.41 | 0.00 | 79 | 1007.7 |
| 20260508072102 | 40 | 312 | 1.0 | 3.0 | 0.00 | 0.44 | 0.00 | 77 | 1007.4 |
| 20260508071103 | 41 | 327 | 2.0 | 4.0 | 0.00 | 0.44 | 0.00 | 76 | 1007.4 |
| 20260508065103 | 43 | 313 | 3.0 | 5.0 | 0.00 | 0.44 | 0.00 | 70 | 1007.1 |
| 20260508064123 | 44 | 355 | 3.0 | 5.0 | 0.00 | 0.44 | 0.00 | 71 | 1007.0 |
| 20260508063103 | 45 | 334 | 3.0 | 5.0 | 0.00 | 0.44 | 0.00 | 69 | 1007.1 |
| 20260508062103 | 46 | 331 | 4.0 | 8.0 | 0.00 | 0.44 | 0.00 | 62 | 1007.1 |
| 20260508061147 | 47 | 320 | 3.0 | 9.0 | 0.00 | 0.44 | 0.00 | 60 | 1007.1 |
| 20260508060123 | 48 | 327 | 4.0 | 9.0 | 0.00 | 0.44 | 0.00 | 57 | 1007.0 |
| 20260508055103 | 48 | 336 | 4.0 | 8.0 | 0.00 | 0.44 | 0.00 | 56 | 1006.9 |
| 20260508054103 | 49 | 320 | 5.0 | 10.0 | 0.00 | 0.44 | 0.00 | 54 | 1007.0 |
| 20260508053102 | 49 | 311 | 5.0 | 10.0 | 0.00 | 0.44 | 0.00 | 54 | 1007.1 |
| 20260508052103 | 49 | 335 | 4.0 | 9.0 | 0.00 | 0.44 | 0.00 | 53 | 1007.0 |
| 20260508051123 | 50 | 318 | 5.0 | 10.0 | 0.00 | 0.44 | 0.00 | 54 | 1007.0 |
| 20260508050124 | 50 | 318 | 6.0 | 11.0 | 0.00 | 0.44 | 0.00 | 52 | 1007.1 |
| 20260508045124 | 50 | 335 | 4.0 | 12.0 | 0.00 | 0.44 | 0.00 | 52 | 1007.1 |
| 20260508044102 | 51 | 326 | 8.0 | 11.0 | 0.00 | 0.44 | 0.00 | 54 | 1007.2 |
| 20260508042102 | 51 | 337 | 6.0 | 10.0 | 0.00 | 0.44 | 0.00 | 52 | 1007.1 |
| 20260508041103 | 51 | 328 | 6.0 | 9.0 | 0.00 | 0.44 | 0.00 | 51 | 1007.2 |
| 20260508035103 | 51 | 323 | 7.0 | 12.0 | 0.00 | 0.44 | 0.44 | 52 | 1007.2 |
| 20260508034102 | 51 | 326 | 5.0 | 9.0 | 0.00 | 0.44 | 0.44 | 51 | 1007.3 |
| 20260508033102 | 51 | 313 | 2.0 | 9.0 | 0.00 | 0.44 | 0.44 | 51 | 1007.2 |
| 20260508032102 | 51 | 322 | 4.0 | 10.0 | 0.00 | 0.44 | 0.44 | 50 | 1007.2 |
| 20260508031103 | 51 | 314 | 3.0 | 10.0 | 0.00 | 0.44 | 0.44 | 51 | 1007.3 |
| 20260508025103 | 51 | 303 | 4.0 | 9.0 | 0.00 | 0.44 | 0.44 | 51 | 1007.4 |
| 20260508024103 | 51 | 303 | 5.0 | 9.0 | 0.00 | 0.44 | 0.44 | 51 | 1007.5 |
| 20260508023123 | 51 | 310 | 5.0 | 10.0 | 0.00 | 0.44 | 0.44 | 52 | 1007.3 |
| 20260508022103 | 51 | 312 | 4.0 | 9.0 | 0.00 | 0.44 | 0.44 | 51 | 1007.4 |
| 20260508021104 | 52 | 303 | 4.0 | 9.0 | 0.00 | 0.44 | 0.44 | 50 | 1007.5 |
| 20260508015104 | 52 | 311 | 2.0 | 5.0 | 0.00 | 0.44 | 0.44 | 49 | 1007.5 |
| 20260508014102 | 53 | 312 | 2.0 | 6.0 | 0.00 | 0.44 | 0.44 | 48 | 1007.6 |
| 20260508013103 | 54 | 304 | 4.0 | 9.0 | 0.00 | 0.44 | 0.44 | 46 | 1007.4 |
| 20260508012102 | 54 | 306 | 4.0 | 11.0 | 0.00 | 0.44 | 0.44 | 46 | 1007.3 |
| 20260508011103 | 54 | 303 | 5.0 | 10.0 | 0.00 | 0.44 | 0.44 | 46 | 1007.2 |
| 20260508005103 | 55 | 310 | 5.0 | 11.0 | 0.00 | 0.44 | 0.44 | 45 | 1007.0 |
| 20260508004103 | 55 | 309 | 4.0 | 9.0 | 0.00 | 0.44 | 0.44 | 45 | 1006.9 |
| 20260508003103 | 56 | 307 | 5.0 | 13.0 | 0.00 | 0.44 | 0.44 | 44 | 1006.5 |
| 20260508002102 | 56 | 319 | 5.0 | 15.0 | 0.00 | 0.44 | 0.44 | 45 | 1006.1 |
| 20260508001103 | 56 | 328 | 7.0 | 14.0 | 0.00 | 0.44 | 0.44 | 44 | 1005.9 |
| 20260507235103 | 57 | 312 | 7.0 | 13.0 | 0.00 | 0.44 | 0.44 | 45 | 1005.9 |
| 20260507234102 | 58 | 317 | 4.0 | 10.0 | 0.00 | 0.44 | 0.44 | 43 | 1005.8 |
| 20260507233103 | 59 | 322 | 7.0 | 15.0 | 0.00 | 0.44 | 0.44 | 42 | 1005.6 |
| 20260507232102 | 59 | 324 | 8.0 | 12.0 | 0.00 | 0.45 | 0.44 | 42 | 1005.6 |
| 20260507231103 | 60 | 334 | 11.0 | 16.0 | 0.00 | 0.46 | 0.44 | 40 | 1005.5 |
| 20260507225104 | 61 | 312 | 7.0 | 13.0 | 0.00 | 0.47 | 0.44 | 38 | 1005.2 |
| 20260507223102 | 62 | 321 | 8.0 | 16.0 | 0.00 | 0.50 | 0.44 | 38 | 1005.1 |
| 20260507222104 | 62 | 320 | 11.0 | 18.0 | 0.00 | 0.51 | 0.44 | 38 | 1005.0 |
| 20260507221102 | 62 | 318 | 10.0 | 17.0 | 0.00 | 0.53 | 0.44 | 37 | 1005.0 |
| 20260507215103 | 63 | 312 | 8.0 | 18.0 | 0.00 | 0.53 | 0.44 | 38 | 1004.8 |
| 20260507214144 | 63 | 343 | 13.0 | 20.0 | 0.00 | 0.53 | 0.44 | 38 | 1004.7 |
| 20260507213103 | 63 | 319 | 9.0 | 18.0 | 0.00 | 0.53 | 0.44 | 39 | 1004.6 |
| 20260507212102 | 64 | 322 | 10.0 | 18.0 | 0.00 | 0.54 | 0.44 | 37 | 1004.5 |
| 20260507211103 | 64 | 332 | 10.0 | 17.0 | 0.00 | 0.54 | 0.44 | 39 | 1004.5 |
| 20260507205103 | 64 | 345 | 14.0 | 22.0 | 0.00 | 0.55 | 0.44 | 35 | 1004.4 |
| 20260507204124 | 64 | 307 | 9.0 | 25.0 | 0.00 | 0.55 | 0.44 | 38 | 1004.3 |
| 20260507203103 | 65 | 338 | 14.0 | 21.0 | 0.00 | 0.55 | 0.44 | 37 | 1004.3 |
| 20260507202102 | 65 | 338 | 8.0 | 16.0 | 0.00 | 0.55 | 0.44 | 36 | 1004.2 |
| 20260507201103 | 65 | 339 | 9.0 | 15.0 | 0.00 | 0.55 | 0.44 | 38 | 1004.2 |
| 20260507200125 | 64 | 325 | 7.0 | 14.0 | 0.00 | 0.55 | 0.44 | 38 | 1004.2 |
| 20260507195102 | 64 | 311 | 11.0 | 18.0 | 0.00 | 0.55 | 0.44 | 38 | 1004.3 |
| 20260507194103 | 64 | 5 | 9.0 | 17.0 | 0.00 | 0.57 | 0.44 | 40 | 1004.4 |
| 20260507193123 | 64 | 330 | 14.0 | 19.0 | 0.00 | 0.57 | 0.44 | 41 | 1004.5 |
| 20260507192103 | 64 | 325 | 9.0 | 17.0 | 0.00 | 0.57 | 0.44 | 42 | 1004.7 |
| 20260507191124 | 64 | 257 | 5.0 | 12.0 | 0.00 | 0.57 | 0.44 | 38 | 1004.8 |
| 20260507185102 | 64 | 325 | 12.0 | 18.0 | 0.00 | 0.57 | 0.44 | 40 | 1005.0 |
| 20260507184103 | 64 | 293 | 3.0 | 13.0 | 0.00 | 0.57 | 0.44 | 40 | 1005.1 |
| 20260507183102 | 64 | 317 | 3.0 | 10.0 | 0.00 | 0.57 | 0.44 | 44 | 1005.2 |
| 20260507182103 | 63 | 258 | 6.0 | 16.0 | 0.00 | 0.57 | 0.44 | 37 | 1005.5 |
| 20260507181124 | 63 | 324 | 11.0 | 14.0 | 0.00 | 0.57 | 0.44 | 43 | 1005.6 |
| 20260507175103 | 63 | 332 | 8.0 | 17.0 | 0.00 | 0.57 | 0.44 | 40 | 1005.7 |
| 20260507174124 | 62 | 301 | 8.0 | 16.0 | 0.00 | 0.57 | 0.44 | 42 | 1005.8 |
| 20260507173102 | 63 | 302 | 5.0 | 17.0 | 0.00 | 0.57 | 0.44 | 45 | 1005.9 |
| 20260507172103 | 62 | 341 | 9.0 | 17.0 | 0.00 | 0.57 | 0.44 | 49 | 1005.8 |
| 20260507171103 | 62 | 333 | 14.0 | 23.0 | 0.00 | 0.57 | 0.44 | 49 | 1006.0 |
| 20260507165103 | 62 | 307 | 10.0 | 16.0 | 0.00 | 0.57 | 0.44 | 52 | 1006.2 |
| 20260507164102 | 62 | 295 | 5.0 | 11.0 | 0.00 | 0.57 | 0.44 | 61 | 1006.2 |
| 20260507163103 | 61 | 302 | 5.0 | 17.0 | 0.00 | 0.57 | 0.44 | 60 | 1006.3 |
| 20260507162102 | 61 | 287 | 5.0 | 14.0 | 0.00 | 0.57 | 0.44 | 60 | 1006.4 |
| 20260507161104 | 60 | 310 | 9.0 | 14.0 | 0.00 | 0.57 | 0.44 | 67 | 1006.5 |
| 20260507155124 | 60 | 0 | 5.0 | 12.0 | 0.00 | 0.57 | 0.44 | 69 | 1006.7 |
| 20260507154103 | 59 | 295 | 4.0 | 13.0 | 0.00 | 0.57 | 0.44 | 70 | 1006.7 |
| 20260507153102 | 59 | 345 | 5.0 | 12.0 | 0.00 | 0.57 | 0.44 | 72 | 1006.9 |
| 20260507152103 | 58 | 333 | 6.0 | 16.0 | 0.00 | 0.57 | 0.44 | 71 | 1006.9 |
| 20260507151102 | 58 | 331 | 9.0 | 16.0 | 0.00 | 0.57 | 0.44 | 70 | 1007.0 |
| 20260507145102 | 57 | 323 | 6.0 | 11.0 | 0.00 | 0.57 | 0.44 | 73 | 1007.2 |
| 20260507144103 | 57 | 355 | 8.0 | 13.0 | 0.00 | 0.57 | 0.44 | 76 | 1007.2 |
| 20260507143103 | 57 | 326 | 7.0 | 11.0 | 0.00 | 0.57 | 0.44 | 78 | 1007.2 |
| 20260507142124 | 57 | 0 | 5.0 | 12.0 | 0.00 | 0.57 | 0.44 | 80 | 1007.1 |
| 20260507141102 | 56 | 335 | 4.0 | 11.0 | 0.00 | 0.57 | 0.44 | 83 | 1007.4 |
| 20260507135103 | 54 | 311 | 4.0 | 12.0 | 0.00 | 0.57 | 0.44 | 87 | 1007.5 |
| 20260507134102 | 53 | 303 | 3.0 | 7.0 | 0.00 | 0.57 | 0.44 | 90 | 1007.4 |
| 20260507133103 | 52 | 336 | 5.0 | 10.0 | 0.00 | 0.57 | 0.44 | 90 | 1007.5 |
| 20260507132102 | 52 | 331 | 7.0 | 12.0 | 0.00 | 0.57 | 0.44 | 90 | 1007.7 |
| 20260507131124 | 52 | 339 | 5.0 | 11.0 | 0.00 | 0.57 | 0.44 | 93 | 1007.7 |
| 20260507125103 | 51 | 320 | 2.0 | 5.0 | 0.00 | 0.57 | 0.44 | 93 | 1007.5 |
| 20260507124103 | 51 | 278 | 1.0 | 5.0 | 0.00 | 0.57 | 0.44 | 93 | 1007.4 |
| 20260507123102 | 50 | 320 | 1.0 | 4.0 | 0.00 | 0.57 | 0.44 | 93 | 1007.6 |